Location: Tamazert
(32.6352°N, 5.2072°W)
Time: 03:50:48
(UTC+00:00)

Vanguard 2 - Pass Details

Date: 11 October 2022
Orbit: 553 x 2933 km, 32.9° (Epoch: 04 December)

Event Time Altitude Azimuth Distance (km) Brightness Sun altitude
Rises 17:16:46 0° 282° (WNW) 5,578 13.3 6.7°
Reaches altitude 10° 17:20:22 10° 275° (W) 4,859 13.4 5.9°
Maximum altitude 17:33:36 40° 213° (SSW) 3,667 11.5 3.2°
Drops below altitude 10° 17:49:23 10° 152° (SSE) 5,707 11.8 -0.1°
Sets 17:54:07 0° 145° (SE) 6,607 12.0 -1.1°
